Date,TemperatureHighF,TemperatureAvgF,TemperatureLowF,DewpointHighF,DewpointAvgF,DewpointLowF,HumidityHigh,HumidityAvg,HumidityLow,PressureMaxIn,PressureMinIn,WindSpeedMaxMPH,WindSpeedAvgMPH,GustSpeedMaxMPH,PrecipitationSumIn
2013-1-1,33,30,23,30,26,16,93,86,73,30.12,30.01,5,2,8,0.01
2013-1-2,28,20,12,19,15,9,89,82,63,30.22,30.10,3,1,7,0.04
2013-1-3,34,23,10,23,16,7,90,75,51,30.28,30.17,11,4,18,0.01
2013-1-4,34,30,27,24,22,19,78,70,57,30.31,30.24,13,8,23,0.00
2013-1-5,39,31,22,29,24,18,88,76,63,30.35,30.15,5,2,10,0.13
2013-1-6,38,33,27,32,27,21,86,78,74,30.32,30.00,13,6,23,0.03
2013-1-7,38,31,26,28,24,22,85,78,64,30.45,30.23,6,2,11,0.01
2013-1-8,49,37,23,34,28,19,88,71,56,30.31,30.21,7,2,14,0.00
2013-1-9,51,44,36,43,36,29,90,73,58,30.50,30.20,9,4,15,0.05
2013-1-10,45,37,29,38,31,25,91,80,71,30.51,30.12,6,3,14,0.02
2013-1-11,60,54,45,54,48,38,91,82,70,30.12,29.90,11,5,22,0.46
2013-1-12,64,60,55,60,56,50,93,88,80,30.04,29.83,9,4,18,0.01
2013-1-13,65,55,37,60,52,34,92,88,77,30.10,29.76,12,7,23,0.61
2013-1-14,37,28,24,34,23,20,89,83,78,30.41,30.10,7,4,13,0.20
2013-1-15,31,28,23,25,23,19,89,82,77,30.35,30.07,8,5,15,0.00
2013-1-16,35,32,30,29,27,25,87,81,72,30.08,29.96,7,4,13,0.00
2013-1-17,40,32,27,31,26,20,86,78,63,30.34,30.06,6,2,12,0.00
2013-1-18,37,28,17,25,19,13,88,70,56,30.50,30.22,9,4,20,0.00
2013-1-19,54,44,36,29,26,22,64,49,31,30.21,29.90,14,10,25,0.00
2013-1-20,47,34,25,34,18,11,68,53,43,30.19,29.89,17,7,27,0.00
2013-1-21,24,20,10,17,10,-2,84,65,53,30.19,30.04,14,8,26,0.00
2013-1-22,17,12,6,3,-1,-3,70,58,45,30.33,30.19,10,6,19,0.00
2013-1-23,20,16,11,14,6,1,79,65,49,30.30,30.06,8,3,14,0.00
2013-1-24,21,17,11,15,8,3,85,68,50,30.54,30.06,7,3,14,0.00
2013-1-25,25,21,18,20,14,7,85,74,59,30.43,30.01,7,4,16,0.00
2013-1-26,31,25,20,22,19,14,89,76,62,30.41,30.09,7,4,14,0.03
2013-1-27,35,28,18,31,21,13,90,76,63,30.43,30.19,6,3,13,0.20
2013-1-28,51,46,34,49,43,31,94,90,79,30.19,30.02,11,7,21,0.54
2013-1-29,64,58,50,58,53,47,94,84,74,30.06,29.62,12,7,24,0.01
2013-1-30,66,54,33,58,49,25,92,81,73,29.62,29.27,18,9,29,0.71
2013-1-31,33,26,17,26,18,12,88,71,60,29.96,29.50,16,10,27,0.13
2013-2-1,16,11,6,12,3,-1,85,72,61,30.35,29.96,11,6,20,0.00
2013-2-2,28,22,11,25,17,5,87,82,74,30.29,29.96,8,5,16,0.00
2013-2-3,27,21,16,23,15,9,86,77,67,30.08,29.89,11,6,18,0.00
2013-2-4,34,26,14,32,21,11,92,84,69,30.09,29.81,7,3,16,0.00
2013-2-5,36,32,28,32,28,24,92,84,71,29.98,29.83,8,2,15,0.06
2013-2-6,35,32,28,29,26,23,84,78,69,30.26,29.98,6,2,16,0.01
2013-2-7,55,40,28,39,31,23,85,71,54,30.21,29.82,6,3,11,0.00
2013-2-8,50,37,29,43,31,21,90,79,60,30.29,29.78,11,6,20,0.14
2013-2-9,38,29,19,24,20,16,89,72,54,30.40,30.23,4,2,11,0.01
2013-2-10,52,42,30,42,29,20,81,62,41,30.23,29.80,10,5,22,0.02
2013-2-11,51,46,38,48,36,27,90,67,48,30.01,29.76,20,11,32,0.02
2013-2-12,48,37,29,29,26,23,82,65,39,30.11,29.91,9,4,17,0.00
2013-2-13,34,30,28,29,26,23,90,85,67,29.91,29.75,7,2,11,0.07
2013-2-14,51,38,29,38,32,26,92,81,56,29.97,29.80,11,6,21,0.03
2013-2-15,38,32,23,32,28,20,90,84,70,30.12,29.97,9,2,15,0.01
2013-2-16,26,21,14,22,16,10,90,80,62,30.11,30.00,9,4,15,0.00
2013-2-17,28,21,12,14,10,6,80,64,45,30.20,30.07,7,2,14,0.00
2013-2-18,55,38,21,38,23,10,73,55,43,30.20,29.76,17,6,32,0.05
2013-2-19,45,32,23,39,26,16,91,78,69,30.06,29.65,15,11,28,0.25
2013-2-20,24,21,18,17,14,11,80,73,66,30.27,30.06,12,6,19,0.01
2013-2-21,28,24,21,22,18,13,79,75,71,30.32,30.06,9,4,19,0.00
2013-2-22,42,35,28,38,32,22,92,87,79,30.06,29.88,11,4,21,0.20
2013-2-23,41,35,30,32,28,24,92,77,56,29.98,29.89,8,3,13,0.01
2013-2-24,39,31,25,25,23,20,89,73,56,30.14,29.92,7,3,16,0.00
2013-2-25,44,34,23,29,24,19,85,70,53,30.16,29.92,8,3,15,0.00
2013-2-26,46,40,34,43,34,24,92,82,66,29.92,29.38,13,7,24,0.59
2013-2-27,42,37,32,39,34,30,92,87,78,29.70,29.50,11,8,23,0.29
2013-2-28,35,33,31,32,30,28,91,89,86,29.91,29.66,10,6,17,0.03
2013-3-1,34,32,29,32,29,23,92,86,77,30.01,29.90,7,3,11,0.01
2013-3-2,29,27,26,24,21,19,85,77,71,30.04,29.99,7,3,11,0.00
2013-3-3,31,28,25,22,19,17,85,71,57,30.06,30.00,8,3,17,0.00
2013-3-4,40,30,18,28,20,14,90,69,44,30.14,30.00,5,1,9,0.02
2013-3-5,37,34,32,33,30,29,92,86,78,30.03,29.55,9,5,17,0.30
2013-3-6,33,31,29,30,28,27,93,90,86,30.22,29.57,5,3,18,0.28
2013-3-7,38,33,28,33,28,26,92,85,76,30.35,30.20,6,2,9,0.25
2013-3-8,39,32,21,28,24,18,91,73,54,30.45,30.35,7,2,10,0.03
2013-3-9,56,41,29,37,30,24,86,67,45,30.37,30.05,6,2,13,0.01
2013-3-10,67,58,50,39,35,32,52,43,31,30.05,29.85,9,5,19,0.00
2013-3-11,62,50,39,50,43,32,89,79,39,29.88,29.59,15,6,26,1.00
2013-3-12,42,37,34,33,30,28,85,76,61,30.00,29.82,11,6,19,0.01
2013-3-13,35,30,27,30,24,20,88,79,62,30.27,29.97,12,8,27,0.00
2013-3-14,41,31,20,22,20,16,88,65,37,30.32,30.13,7,4,15,0.00
2013-3-15,51,40,30,39,31,20,86,71,56,30.14,29.80,8,3,15,0.00
2013-3-16,57,46,35,50,40,31,89,82,69,30.01,29.61,9,5,17,0.15
2013-3-17,36,34,32,31,29,27,85,80,74,30.14,30.00,8,6,17,0.01
2013-3-18,50,40,32,48,38,29,93,89,80,30.00,29.61,13,7,21,0.96
2013-3-19,42,36,29,34,23,16,82,61,36,30.07,29.80,19,11,35,0.01
2013-3-20,36,31,24,21,17,10,69,57,47,30.06,29.91,13,8,25,0.00
2013-3-21,30,24,20,16,14,11,81,65,53,30.00,29.90,8,4,15,0.00
2013-3-22,42,30,20,21,17,13,77,59,37,30.05,29.97,7,2,14,0.00
2013-3-23,49,37,26,27,23,18,82,58,34,30.05,29.90,6,2,12,0.00
2013-3-24,36,33,31,31,28,24,92,81,65,29.90,29.40,13,8,26,0.02
2013-3-25,33,32,30,31,29,27,93,91,89,29.90,29.40,7,4,14,0.16
2013-3-26,38,34,30,31,29,26,91,82,69,30.20,29.90,6,4,14,0.35
2013-3-27,41,35,30,31,27,22,85,72,56,30.28,30.19,8,5,15,0.01
2013-3-28,49,37,27,30,25,21,81,63,44,30.33,30.26,7,2,16,0.00
2013-3-29,53,40,25,33,28,21,88,64,40,30.31,30.19,6,2,13,0.00
2013-3-30,57,45,29,34,30,25,89,58,37,30.24,29.95,7,2,14,0.00
2013-3-31,56,48,44,46,40,-100,92,75,55,29.95,29.76,10,3,18,0.05
2013-4-1,49,41,32,41,28,19,86,61,38,30.09,29.78,9,4,16,0.01
2013-4-2,44,34,21,22,18,15,79,53,32,30.24,30.09,8,3,17,0.00
2013-4-3,46,35,21,20,17,12,74,49,30,30.40,30.23,9,3,15,0.00
2013-4-4,53,41,30,24,19,15,60,43,23,30.34,29.99,7,3,14,0.00
2013-4-5,59,45,30,36,27,22,74,51,32,30.14,29.97,7,2,14,0.00
2013-4-6,63,49,34,36,28,22,63,44,30,30.22,29.92,8,4,17,0.00
2013-4-7,71,63,56,54,44,35,87,50,40,29.99,29.86,13,7,24,0.22
2013-4-8,71,62,53,55,52,47,91,70,53,30.02,29.89,12,5,26,0.28
2013-4-9,80,68,54,60,54,50,86,64,42,30.06,29.93,14,5,26,0.00
2013-4-10,82,72,63,64,59,55,78,65,47,29.97,29.81,13,6,27,0.00
2013-4-11,66,62,58,61,57,54,93,85,72,29.84,29.55,9,3,17,0.84
2013-4-12,58,47,41,56,40,31,93,78,59,29.91,29.51,12,7,23,0.63
2013-4-13,56,46,39,39,35,32,81,66,44,30.03,29.91,14,6,26,0.01
2013-4-14,69,53,38,44,38,32,82,60,36,30.08,29.90,6,2,15,0.00
2013-4-15,68,61,52,54,49,40,77,65,45,30.01,29.90,8,3,17,0.00
2013-4-16,79,65,58,63,57,52,92,76,58,30.16,29.96,11,6,19,0.58
2013-4-17,77,64,53,64,58,51,93,84,60,30.22,29.99,8,4,19,0.94
2013-4-18,81,72,64,63,58,51,81,62,39,29.99,29.65,15,8,30,0.01
2013-4-19,74,49,39,54,37,31,77,65,47,29.95,29.57,14,10,25,0.55
2013-4-20,49,41,36,32,29,25,81,64,43,30.39,29.95,9,6,22,0.01
2013-4-21,53,43,32,31,28,24,74,57,36,30.53,30.38,8,4,14,0.00
2013-4-22,68,54,39,40,34,26,64,48,33,30.38,30.14,6,2,14,0.00
2013-4-23,69,60,49,52,44,35,69,56,46,30.15,29.89,8,3,18,0.00
2013-4-24,65,52,38,54,44,33,91,76,60,30.20,29.78,11,6,23,0.80
2013-4-25,58,45,34,37,34,28,92,68,40,30.37,30.20,12,4,21,0.01
2013-4-26,60,47,30,37,31,26,89,57,33,30.47,30.35,3,1,8,0.00
2013-4-27,68,56,44,50,40,31,79,56,35,30.35,30.08,8,2,18,0.00
2013-4-28,66,59,55,58,53,-100,92,85,73,30.08,29.82,7,4,15,0.11
2013-4-29,63,58,55,55,53,51,93,85,70,30.00,29.89,6,2,9,0.02
2013-4-30,76,63,50,57,53,48,94,73,47,30.08,29.98,5,2,13,0.01
2013-5-1,81,69,55,61,55,50,83,63,40,30.20,30.07,6,2,12,0.00
2013-5-2,73,66,59,56,52,50,72,62,50,30.24,30.11,6,2,15,0.00
2013-5-3,75,67,60,56,50,36,75,57,29,30.11,29.99,8,4,17,0.00
2013-5-4,70,63,57,49,45,38,67,52,39,30.03,29.95,8,5,18,0.00
2013-5-5,64,59,55,47,43,37,72,56,36,29.99,29.93,8,3,18,0.00
2013-5-6,59,56,53,55,52,47,90,87,72,29.97,29.91,8,4,20,0.79
2013-5-7,70,60,54,59,55,52,93,84,64,29.98,29.92,7,3,11,0.08
2013-5-8,72,62,52,61,55,50,94,80,57,30.01,29.93,6,1,12,0.42
2013-5-9,78,65,51,60,55,49,94,74,43,30.04,29.96,7,1,17,0.29
2013-5-10,71,62,59,62,57,-100,93,87,70,29.99,29.82,10,4,25,1.07
2013-5-11,61,53,45,59,49,40,93,86,75,29.98,29.84,9,4,15,0.43
2013-5-12,53,45,36,40,33,-100,93,68,42,30.11,29.98,10,4,19,0.05
2013-5-13,59,49,40,37,34,28,82,57,32,30.17,30.10,9,2,18,0.00
2013-5-14,79,67,49,58,48,35,63,51,41,30.12,29.84,11,6,25,0.00
2013-5-15,86,76,66,60,58,55,74,56,39,29.89,29.81,15,8,26,0.00
2013-5-16,76,64,63,65,38,-100,92,75,51,29.99,29.85,8,2,16,0.10
2013-5-17,78,66,57,66,57,-100,95,85,64,30.08,29.99,7,1,21,0.20
2013-5-18,79,69,62,66,62,59,92,80,59,30.08,29.98,4,2,12,0.19
2013-5-19,81,71,62,69,64,60,94,81,60,30.02,29.93,4,1,8,0.00
2013-5-20,83,75,68,71,67,64,92,78,59,30.02,29.91,8,3,16,0.00
2013-5-21,84,76,68,68,64,61,87,69,49,29.96,29.83,10,5,24,0.00
2013-5-22,79,70,63,65,62,59,91,77,55,29.87,29.75,11,5,22,0.42
2013-5-23,68,62,50,62,57,45,93,84,67,30.07,29.80,11,5,18,0.55
2013-5-24,63,53,44,45,40,36,84,65,38,30.31,30.07,8,3,16,0.03
2013-5-25,65,54,42,49,41,37,85,64,38,30.39,30.23,4,2,11,0.00
2013-5-26,70,60,48,48,42,39,80,53,35,30.32,30.19,5,1,11,0.00
2013-5-27,80,66,52,60,52,43,86,63,44,30.22,29.98,7,3,16,0.19
2013-5-28,76,72,69,63,60,56,74,65,56,30.04,29.96,9,5,20,0.01
2013-5-29,84,77,69,64,61,58,73,59,44,30.10,30.00,10,5,22,0.00
2013-5-30,86,77,69,68,64,61,82,66,51,30.17,30.03,8,3,16,0.00
2013-5-31,83,73,67,68,65,62,91,75,58,30.09,29.97,12,5,26,0.40
2013-6-1,80,74,67,69,66,64,91,77,66,29.99,29.80,12,7,25,0.36
2013-6-2,76,70,64,68,60,-100,92,75,56,29.94,29.82,8,4,14,0.36
2013-6-3,67,61,54,58,53,49,86,75,62,30.07,29.93,5,2,13,0.02
2013-6-4,74,62,50,49,45,38,89,57,32,30.17,30.06,9,3,17,0.01
2013-6-5,80,69,56,64,54,48,80,61,45,30.11,29.88,6,2,13,0.01
2013-6-6,70,67,63,67,64,59,93,90,82,29.90,29.79,6,2,12,0.03
2013-6-7,73,61,56,59,56,54,94,83,58,29.91,29.81,7,4,14,0.02
2013-6-8,74,64,53,61,57,50,93,77,59,30.06,29.89,3,1,9,0.01
2013-6-9,80,72,63,66,62,59,87,72,51,30.09,29.93,6,2,13,0.01
2013-6-10,76,68,63,70,64,61,95,88,65,29.94,29.80,10,3,21,0.18
2013-6-11,83,72,62,69,64,60,94,78,51,29.98,29.86,7,4,13,0.01
2013-6-12,87,78,69,76,70,64,87,77,63,29.94,29.75,7,3,13,0.01
2013-6-13,80,71,66,71,67,63,93,86,74,29.76,29.62,8,3,17,1.71
2013-6-16,76,73,69,67,66,65,90,80,70,29.98,29.96,8,4,14,0.08
2013-6-17,84,73,67,70,66,64,95,81,52,30.00,29.90,4,1,9,0.06
2013-6-18,80,72,65,69,64,58,93,79,61,29.99,29.87,8,3,17,0.46
2013-6-19,78,67,56,58,54,49,89,66,38,30.14,30.01,7,4,16,0.02
2013-6-20,82,68,56,61,56,52,87,68,45,30.22,30.14,4,1,7,0.00
2013-6-22,87,82,74,73,69,66,81,67,54,30.19,30.08,7,3,13,0.01
2013-6-23,87,75,65,71,66,61,94,75,47,30.16,30.06,10,2,18,0.01
2013-6-24,83,74,65,72,67,62,92,81,67,30.16,30.04,10,2,19,0.10
2013-6-25,89,78,68,74,70,65,93,77,57,30.09,29.91,7,4,13,0.03
2013-6-26,84,74,67,73,68,64,93,84,69,29.95,29.80,7,3,17,0.65
2013-6-27,84,73,67,72,68,65,94,85,65,29.81,29.71,6,3,13,0.18
2013-6-28,83,72,63,69,64,56,92,77,46,29.70,29.59,10,4,20,0.03
2013-6-29,76,67,60,66,63,58,94,86,68,29.67,29.59,6,2,10,0.03
2013-6-30,81,70,64,66,64,61,93,83,57,29.85,29.67,7,2,15,0.02
2013-7-1,76,68,63,68,64,60,90,86,74,29.92,29.82,7,4,10,0.00
2013-7-2,80,72,64,68,65,62,94,80,62,30.03,29.91,6,2,10,0.00
2013-7-3,80,74,68,69,67,65,91,79,65,30.14,30.03,5,2,11,0.03
2013-7-4,71,70,68,68,67,65,94,91,89,30.18,30.10,4,1,8,0.70
2013-7-5,75,70,65,69,66,63,94,89,77,30.16,30.08,5,1,9,0.54
2013-7-6,79,72,70,71,68,66,94,90,74,30.15,30.06,9,2,19,0.49
2013-7-7,80,72,65,69,66,63,94,84,64,30.13,30.05,6,2,10,0.01
2013-7-8,84,74,68,73,69,65,92,82,67,30.16,30.06,7,2,14,0.00
2013-7-9,88,78,72,76,71,68,91,81,66,30.10,30.02,9,3,18,0.80
2013-7-10,87,74,66,78,67,-100,92,83,68,30.02,29.86,7,2,15,0.16
2013-7-11,78,70,64,68,63,56,95,81,61,30.03,29.95,9,3,15,0.06
2013-7-12,78,68,58,65,59,54,90,73,51,30.11,30.03,8,3,14,0.00
2013-7-13,81,70,63,67,63,59,88,78,61,30.17,30.07,6,3,13,0.00
2013-7-14,87,79,69,75,70,65,88,76,64,30.25,30.15,4,2,13,0.00
2013-7-15,90,80,72,74,70,68,87,73,55,30.33,30.25,5,1,9,0.00
2013-7-16,91,80,70,75,71,68,94,77,54,30.36,30.28,3,0,6,0.00
2013-7-17,91,81,71,77,73,69,94,78,60,30.35,30.21,5,2,9,0.00
2013-7-18,91,80,71,75,72,69,94,78,54,30.24,30.05,4,1,8,0.00
2013-7-19,86,78,74,78,73,68,93,85,71,30.08,29.92,6,2,11,0.27
2013-7-20,84,74,70,74,69,-100,93,85,70,29.94,29.88,8,3,16,1.00
2013-7-21,83,74,67,73,70,65,95,86,69,29.99,29.90,5,1,9,0.36
2013-7-22,76,73,70,72,70,68,94,90,82,29.95,29.78,4,1,9,0.10
2013-7-23,83,73,69,75,69,65,95,87,72,29.84,29.75,7,2,13,0.07
2013-7-24,74,68,61,66,60,55,89,76,58,30.00,29.82,8,4,14,0.02
2013-7-25,75,65,55,59,55,52,89,71,50,30.09,30.00,7,3,13,0.01
2013-7-26,78,66,54,63,58,52,94,76,53,30.10,29.99,4,1,10,0.00
2013-7-27,73,67,63,66,63,60,93,87,77,29.99,29.85,8,2,17,0.49
2013-7-28,71,65,54,56,53,50,94,66,52,30.06,29.98,6,4,16,0.06
2013-7-29,76,64,53,60,55,50,91,74,53,30.19,30.06,7,2,15,0.01
2013-7-30,77,67,56,65,59,54,94,78,55,30.24,30.14,2,0,7,0.00
2013-7-31,73,69,65,67,64,61,91,85,79,30.14,29.96,4,1,9,0.00
2013-8-1,79,71,64,67,64,58,94,79,55,30.00,29.93,5,2,10,0.00
2013-8-2,80,69,56,65,60,54,94,76,54,30.02,29.96,6,2,13,0.00
2013-8-3,79,71,64,69,65,59,92,81,61,30.03,29.97,4,1,13,0.08
2013-8-4,76,67,59,61,58,55,93,74,50,30.14,30.03,8,3,15,0.01
2013-8-5,76,66,54,61,57,52,94,74,52,30.14,29.99,3,1,8,0.00
2013-8-6,79,71,62,68,62,56,87,74,62,30.00,29.94,5,2,11,0.00
2013-8-7,83,75,68,73,70,65,92,84,71,29.97,29.90,5,2,11,0.00
2013-8-8,83,74,71,75,71,69,95,90,73,29.98,29.91,4,1,13,0.26
2013-8-9,79,72,69,72,69,67,95,90,74,30.04,29.92,4,1,8,0.49
2013-8-10,83,74,66,71,67,64,95,81,61,30.14,30.04,4,0,9,0.01
2013-8-11,84,74,66,72,68,64,94,81,61,30.11,30.04,5,1,10,0.00
2013-8-12,82,71,63,71,66,61,94,83,60,30.09,29.89,5,1,10,0.21
2013-8-13,76,69,58,70,61,-100,93,78,58,30.05,29.86,4,1,12,0.46
2013-8-14,68,56,50,53,46,-100,92,75,54,30.16,30.05,5,2,11,0.01
2013-8-15,72,56,48,57,40,-100,93,71,53,30.18,30.09,5,1,13,0.00
2013-8-16,75,64,57,58,52,-100,84,69,52,30.16,30.11,7,3,14,0.00
2013-8-17,80,68,58,63,58,53,87,72,50,30.20,30.14,7,3,14,0.00
2013-8-18,77,68,60,67,60,-100,92,79,64,30.19,30.11,5,2,9,0.00
2013-8-19,82,66,60,68,51,-100,95,77,46,30.16,30.09,2,0,7,0.00
2013-8-20,82,71,62,68,61,-100,94,75,50,30.20,30.11,5,1,11,0.00
2013-8-21,83,74,67,73,67,63,89,79,67,30.19,30.08,5,1,10,0.06
2013-8-22,84,73,66,72,67,64,93,82,63,30.14,30.04,6,2,13,0.02
2013-8-23,83,73,66,69,66,60,94,78,54,30.16,30.05,5,2,10,0.00
2013-8-24,82,72,61,68,61,55,82,69,48,30.28,30.16,4,2,10,0.00
2013-8-25,83,71,60,65,59,-100,92,71,44,30.35,30.24,4,1,8,0.00
2013-8-26,86,74,62,72,66,59,92,78,55,30.27,30.09,6,2,12,0.00
2013-8-27,86,74,67,75,69,65,94,85,68,30.09,30.01,4,1,9,0.00
2013-8-28,90,85,75,76,74,71,88,71,61,29.98,29.89,10,3,18,0.00
2013-8-29,82,73,67,71,68,65,94,86,66,30.07,29.98,5,1,8,0.00
2013-8-30,86,74,63,72,67,61,95,81,57,30.03,29.87,6,1,11,0.00
2013-8-31,85,75,69,75,70,66,91,84,72,29.89,29.80,8,2,14,0.10
2013-9-1,84,73,66,71,66,-100,92,81,63,29.85,29.78,6,2,12,0.10
2013-9-2,83,75,68,72,68,59,94,81,56,29.90,29.79,6,2,15,0.00
2013-9-3,74,64,56,59,56,53,92,76,57,30.07,29.90,6,2,12,0.00
2013-9-4,79,65,51,62,56,49,94,76,50,30.16,30.06,6,1,12,0.00
2013-9-5,83,68,56,64,58,48,94,74,49,30.21,30.13,5,2,12,0.00
2013-9-6,78,64,52,51,48,41,84,59,28,30.25,30.12,5,2,11,0.00
2013-9-7,83,68,53,66,58,48,88,71,55,30.12,29.97,6,2,11,0.00
2013-9-8,87,74,64,69,64,-100,94,74,50,30.02,29.96,6,2,12,0.00
2013-9-9,88,77,66,71,68,63,92,75,52,30.06,29.98,8,3,15,0.00
2013-9-10,91,81,74,76,72,68,88,75,57,30.15,30.04,7,3,14,0.00
2013-9-11,88,78,70,74,70,67,92,78,56,30.18,30.04,7,2,13,0.00
2013-9-12,78,72,64,70,68,61,94,86,69,30.04,29.85,7,2,14,0.42
2013-9-13,64,58,50,61,50,44,91,75,55,30.09,29.91,7,2,15,0.14
2013-9-14,70,55,43,47,44,41,92,70,38,30.18,30.09,6,2,13,0.01
2013-9-15,75,58,46,59,48,-100,92,75,51,30.15,30.03,8,2,14,0.00
2013-9-16,70,62,56,59,55,51,92,78,57,30.29,30.07,7,3,14,0.00
2013-9-17,74,61,50,55,51,47,90,72,43,30.33,30.18,5,3,12,0.00
2013-9-18,66,58,57,56,53,52,88,83,76,30.19,30.09,2,1,5,0.00
2013-9-19,79,69,64,69,65,62,94,87,66,30.10,29.99,6,2,12,0.20
2013-9-20,85,74,68,69,67,65,94,80,56,30.02,29.82,8,4,19,0.13
2013-9-21,72,64,53,67,58,49,94,82,49,29.87,29.70,5,1,12,0.62
2013-9-22,65,55,47,50,45,-100,92,73,50,30.02,29.87,7,2,13,0.09
2013-9-23,67,56,45,49,46,42,90,70,47,30.13,30.02,5,3,13,0.02
2013-9-24,74,57,44,56,47,41,90,72,49,30.10,29.94,4,2,10,0.01
2013-9-25,71,59,51,55,51,47,91,76,54,29.95,29.89,5,2,8,0.01
2013-9-26,79,61,46,60,51,44,94,72,41,30.08,29.93,4,1,10,0.01
2013-9-27,79,64,48,57,49,44,90,63,33,30.18,30.08,4,1,8,0.01
2013-9-28,78,65,50,58,52,46,91,65,39,30.20,30.08,4,1,11,0.01
2013-9-29,70,63,57,61,56,-100,91,79,67,30.08,30.01,6,2,14,0.01
2013-9-30,71,64,60,62,59,57,93,85,73,30.04,29.97,7,2,12,0.01
2013-10-1,65,62,60,60,59,57,91,89,84,30.06,30.01,0,0,0,0.01
2013-10-2,80,69,60,68,64,57,94,83,66,30.14,30.05,4,1,10,0.01
2013-10-3,77,70,67,70,66,65,94,88,70,30.11,30.03,7,1,13,0.03
2013-10-4,81,72,64,69,65,62,93,81,62,30.11,30.03,7,1,11,0.08
2013-10-5,79,71,66,69,66,63,93,86,72,30.08,29.97,6,2,12,0.30
2013-10-6,75,64,52,67,62,49,94,91,77,29.97,29.72,9,3,18,2.09
2013-10-7,59,52,45,52,45,42,93,80,58,30.16,29.81,9,4,18,0.55
2013-10-8,67,53,40,49,43,38,94,73,42,30.29,30.16,6,2,13,0.00
2013-10-9,71,57,47,51,46,42,86,67,38,30.26,30.17,5,2,12,0.00
2013-10-10,74,57,40,50,45,38,93,69,34,30.19,30.08,3,1,7,0.00
2013-10-11,78,60,46,52,48,43,91,68,35,30.12,30.03,3,1,9,0.00
2013-10-12,76,63,50,62,56,47,92,78,60,30.14,30.04,4,1,8,0.00
2013-10-13,73,60,52,62,53,-100,94,80,54,30.30,30.13,6,1,12,0.00
2013-10-14,72,57,45,54,47,41,89,72,41,30.33,30.19,8,2,14,0.00
2013-10-15,72,62,52,63,57,49,94,86,70,30.20,29.96,6,2,14,0.00
2013-10-16,66,62,49,62,58,45,93,85,69,29.96,29.89,8,3,12,0.09
2013-10-17,53,47,40,48,44,38,94,88,79,29.98,29.86,7,2,14,0.12
2013-10-18,63,52,43,49,44,41,92,77,49,30.05,29.95,8,3,18,0.01
2013-10-19,51,46,41,45,42,38,91,87,77,29.99,29.83,6,2,13,0.15
2013-10-20,60,47,39,44,36,-100,88,72,51,30.01,29.98,7,4,16,0.01
2013-10-21,64,54,44,48,41,37,84,63,43,30.02,29.90,10,4,19,0.01
2013-10-22,51,43,31,47,32,26,91,67,39,30.05,29.86,5,2,13,0.11
2013-10-23,44,40,36,38,35,31,92,82,70,30.02,29.75,7,3,15,0.33
2013-10-24,42,38,33,34,33,30,92,82,67,30.24,30.02,9,4,17,0.03
2013-10-25,47,40,29,34,30,27,92,68,47,30.41,30.24,8,3,16,0.07
2013-10-26,50,42,33,38,30,26,79,65,51,30.29,29.92,11,4,22,0.01
2013-10-27,56,42,31,39,33,-100,93,73,45,30.10,30.03,5,1,14,0.00
2013-10-28,63,45,30,40,32,-100,93,67,33,30.29,30.09,3,1,8,0.00
2013-10-29,58,49,38,45,40,33,89,73,59,30.36,30.22,4,2,8,0.00
2013-10-30,62,57,51,60,54,45,94,91,75,30.23,30.01,3,1,8,0.08
2013-10-31,66,63,60,62,58,55,93,84,74,30.01,29.38,15,7,31,0.75
2013-11-1,64,56,49,61,48,44,91,75,56,29.74,29.37,13,6,24,0.84
2013-11-2,53,49,44,44,40,36,85,72,56,30.06,29.73,9,4,19,0.00
2013-11-3,53,45,39,41,37,-100,88,76,56,30.37,30.07,4,1,9,0.00
2013-11-4,56,47,37,42,37,31,81,68,54,30.41,30.31,6,3,12,0.00
2013-11-5,61,54,50,43,41,38,72,62,49,30.42,30.24,5,1,11,0.00
2013-11-6,65,58,48,57,47,37,91,69,51,30.23,29.97,11,6,23,0.38
2013-11-7,47,42,36,43,33,27,91,71,49,30.23,30.01,8,3,16,0.08
2013-11-8,48,39,30,34,30,27,90,72,50,30.35,30.18,7,2,12,0.00
2013-11-9,59,48,39,38,30,-100,66,52,39,30.24,30.01,13,6,26,0.00
2013-11-10,50,43,30,40,32,26,86,65,50,30.33,30.07,10,4,25,0.00
2013-11-11,53,41,29,42,33,25,89,73,44,30.30,30.07,8,2,17,0.12
2013-11-12,34,28,23,31,22,19,91,79,60,30.58,30.23,7,3,16,0.07
2013-11-13,39,29,19,23,19,15,90,69,39,30.60,30.38,7,3,13,0.01
2013-11-14,53,41,31,24,21,17,66,47,25,30.38,30.15,10,6,19,0.00
2013-11-15,52,46,39,42,28,20,82,51,38,30.18,30.10,8,4,16,0.00
2013-11-16,60,52,47,54,46,-100,89,83,78,30.14,29.93,7,4,18,0.00
2013-11-17,64,60,52,60,54,40,92,84,59,29.94,29.53,14,8,32,1.22
2013-11-18,51,45,36,40,35,29,81,68,53,30.16,29.78,15,7,26,0.41
2013-11-19,39,34,29,29,28,26,90,77,64,30.34,30.16,6,2,11,0.00
2013-11-20,50,38,29,34,28,23,80,68,50,30.33,30.23,6,3,15,0.00
2013-11-21,54,49,43,47,38,29,88,66,55,30.33,30.20,7,2,12,0.04
2013-11-22,53,48,37,51,45,31,94,88,77,30.35,30.16,5,3,15,0.17
2013-11-23,37,30,21,31,21,-100,89,72,52,30.50,30.30,10,3,18,0.01
2013-11-24,26,20,13,13,11,8,84,68,52,30.64,30.49,5,1,10,0.00
2013-11-25,38,28,17,27,17,12,82,62,45,30.49,30.18,7,3,18,0.00
2013-11-26,34,32,30,31,30,27,92,89,78,30.19,29.89,5,1,9,0.02
2013-11-27,32,27,23,28,20,15,87,75,59,30.24,29.87,9,4,23,0.01
2013-11-28,32,24,18,20,16,13,81,71,59,30.42,30.24,7,2,16,0.00
2013-11-29,36,27,16,24,19,13,90,75,59,30.60,30.42,4,1,9,0.02
2013-11-30,48,36,25,31,24,-100,81,66,47,30.50,30.18,8,2,14,0.00
2013-12-1,49,43,37,37,32,27,79,67,59,30.18,29.95,7,2,14,0.00
2013-12-2,48,41,35,40,36,32,90,83,71,29.95,29.79,4,2,10,0.03
2013-12-3,52,43,34,46,40,32,94,88,76,29.88,29.79,4,2,8,0.03
2013-12-4,61,54,46,55,50,43,91,85,80,29.89,29.75,6,3,12,0.02
2013-12-5,63,50,32,59,46,29,93,85,78,30.12,29.78,7,4,16,0.37
2013-12-6,32,29,26,29,26,23,91,90,88,30.35,30.10,6,2,11,0.09
2013-12-7,26,22,16,23,16,-100,90,81,72,30.56,30.34,5,2,8,0.10
2013-12-8,32,24,16,30,21,12,93,86,77,30.50,29.99,8,4,16,0.01
2013-12-9,33,30,25,31,26,19,93,85,78,30.20,29.97,10,6,17,0.00
2013-12-10,28,23,18,19,16,11,89,76,62,30.30,30.11,10,5,20,0.00
2013-12-11,35,22,13,21,15,9,88,76,56,30.46,30.24,9,3,16,0.01
2013-12-12,23,16,4,12,6,1,86,65,39,30.50,30.30,7,3,14,0.01
2013-12-13,37,28,19,29,17,9,89,63,52,30.31,30.15,6,3,12,0.00
2013-12-14,38,34,32,36,31,-100,93,90,86,30.15,29.70,9,4,16,0.62
2013-12-15,32,28,26,30,23,18,92,82,72,30.09,29.82,13,8,24,0.04
2013-12-16,33,27,25,30,24,21,91,88,78,30.11,29.97,7,3,13,0.01
2013-12-17,34,30,27,31,26,23,91,86,81,30.13,29.96,11,5,22,0.03
2013-12-18,37,29,20,23,20,16,89,71,50,30.22,30.03,8,5,15,0.01
2013-12-19,53,45,36,40,30,20,66,57,51,30.08,29.96,8,6,18,0.02
2013-12-20,59,53,49,55,45,34,90,75,54,29.96,29.83,9,6,21,0.02
2013-12-21,67,60,56,62,56,-100,93,88,82,29.83,29.48,14,6,29,1.26
2013-12-22,62,54,40,59,49,36,91,84,73,30.01,29.54,13,8,28,0.91
2013-12-23,39,32,26,36,26,19,88,77,70,30.34,30.01,8,6,17,0.03
2013-12-24,26,19,13,20,12,7,85,76,65,30.51,30.32,8,4,15,0.00
2013-12-25,33,24,15,24,16,11,83,70,50,30.47,30.16,7,4,15,0.00
2013-12-26,38,33,29,26,22,18,79,65,48,30.32,30.14,11,6,20,0.00
2013-12-27,47,38,31,31,27,23,74,65,53,30.39,30.27,7,4,13,0.00
2013-12-28,51,42,35,34,29,-100,73,62,49,30.27,30.01,7,4,15,0.00
2013-12-29,43,39,33,39,34,27,93,84,55,30.01,29.77,8,4,16,0.39
2013-12-30,33,28,23,29,21,16,85,75,66,30.21,29.98,8,4,15,0.01
2013-12-31,31,27,23,22,17,13,76,67,58,30.33,30.12,12,6,20,0.00
2014-1-1,43,34,25,29,25,19,81,71,57,30.27,30.00,6,2,10,0.00
2014-1-2,33,24,13,29,21,9,92,86,80,30.11,29.78,7,3,17,0.00